Weather History for KJXN - November, 2013

Change the Weather History Date:

Saturday, November 30, 2013

  Actual Average Record
Temperature  
Mean Temperature 38 °F 34 °F  
Max Temperature 47 °F 41 °F 62 °F (1998)
Min Temperature 28 °F 27 °F 2 °F (1958)
Degree Days  
Heating Degree Days 27 31  
Month to date heating degree days 849 757  
Since 1 July heating degree days 1471 1404  
Cooling Degree Days 0 0  
Month to date cooling degree days 0 0  
Year to date cooling degree days 616 592  
Moisture  
Dew Point 23 °F    
Average Humidity 59    
Maximum Humidity 75    
Minimum Humidity 42    
Precipitation  
Precipitation 0.00 in 0.08 in 0.42 in (2001)
Month to date precipitation 1.49 2.60  
Year to date precipitation 31.00 29.63  
Sea Level Pressure  
Sea Level Pressure 30.28 in    
Wind  
Wind Speed 10 mph (South)    
Max Wind Speed 18 mph    
Max Gust Speed 26 mph    
Visibility 10 miles    
Events      
T = Trace of Precipitation, MM = Missing Value Source: NWS Daily Summary

Daily Weather History Graph

Daily Weather History Graph

Search for Another Location

Airport or City:

Trip Planner

Search our weather history database for the weather conditions in past years. The results will help you decide how hot, cold, wet, or windy it might be!

Date:

Astronomy

Nov. 30, 2013 Rise Set
Actual Time 7:46 AM EST 5:06 PM EST
Civil Twilight 7:15 AM EST 5:38 PM EST
Nautical Twilight 6:40 AM EST 6:12 PM EST
Astronomical Twilight 6:06 AM EST 6:46 PM EST
Moon 4:53 AM EST (11/30) 3:32 PM EST (11/30)
Length of Visible Light 10h 23m
Length of Day
9h 20m
Waning Crescent, 7% of the Moon is Illuminated
Nov 30
Waning Crescent
Dec 2
New
Dec 9
First Quarter
Dec 17
Full
Dec 25
Last Quarter

Hourly Weather History & Observations

Time (EST) Temp. Windchill Dew Point Humidity Pressure Visibility Wind Dir Wind Speed Gust Speed Precip Events Conditions
12:56 AM 28.0 °F 19.3 °F 19.0 °F 69% 30.52 in 10.0 mi SSE 9.2 mph - N/A   Partly Cloudy
1:56 AM 28.9 °F 17.7 °F 19.0 °F 67% 30.49 in 10.0 mi SSE 15.0 mph - N/A   Mostly Cloudy
2:56 AM 28.9 °F 19.8 °F 19.0 °F 67% 30.48 in 10.0 mi SSE 10.4 mph - N/A   Mostly Cloudy
3:56 AM 28.0 °F 18.1 °F 19.0 °F 69% 30.45 in 10.0 mi SSE 11.5 mph - N/A   Scattered Clouds
4:56 AM 28.9 °F 21.1 °F 19.0 °F 67% 30.44 in 10.0 mi South 8.1 mph - N/A   Mostly Cloudy
5:56 AM 28.9 °F 19.2 °F 19.9 °F 69% 30.43 in 10.0 mi SSE 11.5 mph - N/A   Mostly Cloudy
6:56 AM 28.0 °F 20.0 °F 19.9 °F 72% 30.41 in 10.0 mi South 8.1 mph - N/A   Mostly Cloudy
7:56 AM 30.0 °F 21.7 °F 19.9 °F 66% 30.40 in 10.0 mi South 9.2 mph - N/A   Overcast
8:56 AM 30.0 °F 21.7 °F 21.0 °F 69% 30.39 in 10.0 mi South 9.2 mph - N/A   Clear
9:56 AM 33.1 °F 23.9 °F 21.0 °F 61% 30.36 in 10.0 mi South 12.7 mph - N/A   Clear
10:56 AM 36.0 °F 29.0 °F 21.9 °F 57% 30.32 in 10.0 mi South 9.2 mph - N/A   Clear
11:56 AM 41.0 °F 34.3 °F 24.1 °F 51% 30.28 in 10.0 mi South 11.5 mph - N/A   Clear
12:56 PM 43.0 °F 36.0 °F 25.0 °F 49% 30.24 in 10.0 mi SSW 13.8 mph - N/A   Clear
1:56 PM 46.0 °F 39.9 °F 25.0 °F 44% 30.20 in 10.0 mi SSW 13.8 mph 19.6 mph N/A   Clear
2:56 PM 46.0 °F 39.9 °F 26.1 °F 46% 30.17 in 10.0 mi SW 13.8 mph - N/A   Clear
3:56 PM 46.0 °F 40.6 °F 26.1 °F 46% 30.15 in 10.0 mi SSW 11.5 mph - N/A   Clear
4:56 PM 42.1 °F 38.4 °F 26.1 °F 53% 30.15 in 10.0 mi SSW 5.8 mph - N/A   Clear
5:56 PM 39.0 °F 34.8 °F 26.1 °F 60% 30.15 in 10.0 mi South 5.8 mph - N/A   Clear
6:56 PM 37.9 °F 32.1 °F 27.0 °F 65% 30.14 in 10.0 mi South 8.1 mph - N/A   Clear
7:56 PM 37.0 °F 31.6 °F 26.1 °F 65% 30.14 in 10.0 mi South 6.9 mph - N/A   Clear
8:56 PM 37.0 °F 31.0 °F 27.0 °F 67% 30.13 in 10.0 mi SSW 8.1 mph - N/A   Clear
9:56 PM 37.9 °F 32.1 °F 26.1 °F 62% 30.12 in 10.0 mi SSW 8.1 mph - N/A   Clear
10:56 PM 37.9 °F 31.5 °F 26.1 °F 62% 30.11 in 10.0 mi SW 9.2 mph - N/A   Clear
11:56 PM 37.9 °F 31.5 °F 26.1 °F 62% 30.09 in 10.0 mi WSW 9.2 mph - N/A   Scattered Clouds